Regional Weather Roundup
Issued by NWS

Home | Current Version | Previous Version | Text Only | Print | Product List | Glossary Off
Versions: 1 2 3 4 5 6 7 8 9 10 11 12 13 14 15 16 17 18 19 20 21 22 23 24 25 26 27 28 29 30 31 32 33 34 35 36 37 38 39 40 41 42 43 44 45 46 47 48 49 50

000
ASUS45 KBOI 271110
RWRID
WEATHER ROUNDUP FOR IDAHO
NATIONAL WEATHER SERVICE BOISE ID
400 AM MST FRI FEB 27 2015

NOTE: "FAIR" INDICATES FEW OR NO CLOUDS BELOW 12000 FEET
WITH NO SIGNIFICANT WEATHER AND/OR OBSTRUCTIONS TO VISIBILITY

IDZ012-014-271200-
SOUTHWEST IDAHO


CITY           SKY/WX    TMP DP  RH WIND       PRES   REMARKS
BOISE          CLOUDY    38  31  76 SE6       29.82F WCI  33
CALDWELL       CLOUDY    37  27  65 CALM      29.83F
MOUNTAIN HOME  CLOUDY    35  31  85 E3        29.82F
$$

IDZ016-017-271200-
SOUTHCENTRAL IDAHO


CITY           SKY/WX    TMP DP  RH WIND       PRES   REMARKS
BURLEY         CLOUDY    33  31  92 SW3       29.80F
JEROME         MOCLDY    27  24  89 N3        29.82F
TWIN FALLS     CLOUDY    34  28  79 S9        29.81F WCI  27
$$

IDZ019>023-271200-
SOUTHEAST IDAHO


CITY           SKY/WX    TMP DP  RH WIND       PRES   REMARKS
IDAHO FALLS    CLOUDY    24  12  60 N7        29.83F WCI  16
POCATELLO      CLOUDY    30  29  96 W5        29.83F WCI  25
REXBURG        CLOUDY    20   8  60 E6        29.84F WCI  12
$$

IDZ006-010-011-018-031-032-271200-
CENTRAL IDAHO MOUNTAINS


CITY           SKY/WX    TMP DP  RH WIND       PRES   REMARKS
MCCALL         CLOUDY    28  25  88 CALM      29.77F
HAILEY         CLOUDY    30  27  86 S3        29.81F
STANLEY          N/A     25  18  74 S3        29.75F
SALMON         CLOUDY    27  19  74 CALM      29.83F
CHALLIS        CLOUDY    28  25  88 S5        29.79F WCI  23
$$

IDZ002-004-006-007-026-271200-
NORTHERN IDAHO


CITY           SKY/WX    TMP DP  RH WIND       PRES   REMARKS
LEWISTON       PTCLDY    35  34  96 S3        29.84F
LOWELL           N/A     35  31  85 NW3       29.89F
COEUR D`ALENE  PTCLDY    28  25  86 E8        29.85F WCI  20
MULLAN PASS    FLURRIES  19  17  92 S6        29.75F WCI  11
$$


USA.gov is the U.S. government's official web portal to all federal, state and local government web resources and services.